Concord, NH

10:03 PM EDT on April 27, 2017 (GMT -0400)
Concord Municipal

Weather History for KCON - September, 2013

Change the Weather History Date:

Saturday, September 21, 2013

  Actual Average Record
Temperature  
Mean Temperature 62 °F 58 °F  
Max Temperature 76 °F 71 °F 93 °F (1978)
Min Temperature 47 °F 45 °F 28 °F (1962)
Degree Days  
Heating Degree Days 3 8  
Month to date heating degree days 120 99  
Since 1 July heating degree days 150 147  
Cooling Degree Days 0 1  
Month to date cooling degree days 46 34  
Year to date cooling degree days 537 447  
Growing Degree Days 10 (Base 50)    
Moisture  
Dew Point 54 °F    
Average Humidity 77    
Maximum Humidity 100    
Minimum Humidity 53    
Precipitation  
Precipitation 0.00 in 0.11 in 2.79 in (1938)
Month to date precipitation 4.16 2.26  
Year to date precipitation 32.45 28.53  
Snow  
Snow 0.00 in 0.00 in 0.00 in (2002)
Month to date snowfall 0.0 0.0  
Since 1 July snowfall 0.0 0.0  
Since 1 September snowfall 0.0 0.0  
Snow Depth 0.00 in    
Sea Level Pressure  
Sea Level Pressure 29.92 in    
Wind  
Wind Speed 8 mph (SSE)    
Max Wind Speed 21 mph    
Max Gust Speed 25 mph    
Visibility 5 miles    
Events Fog    
T = Trace of Precipitation, MM = Missing Value Source: NWS Daily Summary

Daily Weather History Graph

Daily Weather History Graph

Search for Another Location

Airport or City:

Trip Planner

Search our weather history database for the weather conditions in past years. The results will help you decide how hot, cold, wet, or windy it might be!

Date:

Astronomy

Sep. 21, 2013 Rise Set
Actual Time 6:32 AM EDT 6:44 PM EDT
Civil Twilight 6:03 AM EDT 7:13 PM EDT
Nautical Twilight 5:30 AM EDT 7:46 PM EDT
Astronomical Twilight 4:56 AM EDT 8:20 PM EDT
Moon 7:48 PM EDT (9/21) 8:52 AM EDT (9/21)
Length of Visible Light 13h 09m
Length of Day
12h 12m
Waning Gibbous, 94% of the Moon is Illuminated
Sep 21
Waning Gibbous
Sep 26
Last Quarter
Oct 4
New
Oct 11
First Quarter
Oct 18
Full

Hourly Weather History & Observations

Time (EDT) Temp. Dew Point Humidity Pressure Visibility Wind Dir Wind Speed Gust Speed Precip Events Conditions
12:51 AM 51.1 °F 50.0 °F 96% 30.02 in 10.0 mi Calm Calm - N/A   Clear
1:34 AM 48.2 °F 48.2 °F 100% 30.01 in 2.5 mi Calm Calm - N/A   Partly Cloudy
1:37 AM 48.2 °F 48.2 °F 100% 30.01 in 1.0 mi Calm Calm - N/A   Mist
1:51 AM 50.0 °F 50.0 °F 100% 30.01 in 1.5 mi Calm Calm - N/A   Partly Cloudy
2:08 AM 50.0 °F 50.0 °F 100% 30.01 in 3.0 mi Calm Calm - N/A   Clear
2:18 AM 50.0 °F 50.0 °F 100% 30.00 in 2.0 mi Calm Calm - N/A   Partly Cloudy
2:20 AM 50.0 °F 50.0 °F 100% 30.00 in 1.0 mi Calm Calm - N/A   Mist
2:27 AM 50.0 °F 50.0 °F 100% 30.00 in 0.5 mi Calm Calm - N/A Fog Fog
2:51 AM 46.9 °F 46.9 °F 100% 30.00 in 0.2 mi Calm Calm - N/A Fog Fog
2:57 AM 48.2 °F 48.2 °F 100% 30.00 in 0.5 mi Calm Calm - N/A Fog Fog
3:01 AM 48.2 °F 48.2 °F 100% 30.01 in 1.8 mi Calm Calm - N/A   Partly Cloudy
3:08 AM 48.2 °F 48.2 °F 100% 30.01 in 1.2 mi Calm Calm - N/A   Scattered Clouds
3:15 AM 48.2 °F 48.2 °F 100% 30.01 in 0.5 mi Calm Calm - N/A Fog Fog
3:20 AM 48.2 °F 48.2 °F 100% 30.01 in 1.5 mi Calm Calm - N/A   Mostly Cloudy
3:22 AM 48.2 °F 48.2 °F 100% 30.01 in 4.0 mi Calm Calm - N/A   Mostly Cloudy
3:28 AM 48.2 °F 48.2 °F 100% 30.01 in 1.8 mi Calm Calm - N/A   Overcast
3:38 AM 48.2 °F 48.2 °F 100% 30.00 in 0.8 mi Calm Calm - N/A   Mist
3:47 AM 50.0 °F 50.0 °F 100% 30.00 in 0.2 mi Calm Calm - N/A Fog Fog
3:51 AM 50.0 °F 50.0 °F 100% 30.00 in 0.2 mi Calm Calm - N/A Fog Fog
4:51 AM 50.0 °F 50.0 °F 100% 29.99 in 0.2 mi Calm Calm - N/A Fog Fog
5:51 AM 51.1 °F 51.1 °F 100% 29.98 in 0.2 mi SE 4.6 mph - N/A Fog Fog
6:51 AM 53.1 °F 53.1 °F 100% 29.99 in 0.2 mi South 6.9 mph - N/A Fog Fog
7:13 AM 53.6 °F 53.6 °F 100% 29.99 in 0.5 mi SW 3.5 mph - N/A Fog Fog
7:37 AM 53.6 °F 53.6 °F 100% 29.99 in 1.2 mi SSE 3.5 mph - N/A   Overcast
7:51 AM 53.1 °F 53.1 °F 100% 29.99 in 2.5 mi SE 3.5 mph - N/A   Overcast
7:58 AM 53.6 °F 53.6 °F 100% 29.98 in 3.0 mi Calm Calm - N/A   Overcast
8:15 AM 53.6 °F 53.6 °F 100% 29.98 in 5.0 mi SSE 4.6 mph - N/A   Overcast
8:29 AM 53.6 °F 53.6 °F 100% 29.98 in 5.0 mi SSE 9.2 mph - N/A   Mostly Cloudy
8:41 AM 55.4 °F 55.4 °F 100% 29.97 in 5.0 mi SSE 5.8 mph - N/A   Mostly Cloudy
8:51 AM 55.0 °F 54.0 °F 96% 29.97 in 5.0 mi SSE 5.8 mph - N/A   Overcast
9:51 AM 55.9 °F 55.0 °F 97% 29.97 in 7.0 mi SSE 8.1 mph - N/A   Overcast
10:09 AM 59.0 °F 55.4 °F 88% 29.95 in 10.0 mi SSE 5.8 mph - N/A   Overcast
10:51 AM 63.0 °F 55.9 °F 78% 29.94 in 10.0 mi SSE 11.5 mph 16.1 mph N/A   Mostly Cloudy
11:08 AM 62.6 °F 55.4 °F 77% 29.93 in 10.0 mi SSE 11.5 mph - N/A   Scattered Clouds
11:51 AM 66.9 °F 57.0 °F 70% 29.91 in 10.0 mi SSE 10.4 mph 18.4 mph N/A   Partly Cloudy
12:51 PM 73.0 °F 55.9 °F 55% 29.88 in 10.0 mi South 11.5 mph 18.4 mph N/A   Partly Cloudy
1:51 PM 73.0 °F 55.9 °F 55% 29.85 in 10.0 mi South 9.2 mph - N/A   Mostly Cloudy
2:51 PM 75.0 °F 57.9 °F 55% 29.83 in 10.0 mi SSE 13.8 mph 21.9 mph N/A   Mostly Cloudy
3:51 PM 73.9 °F 59.0 °F 59% 29.80 in 10.0 mi South 16.1 mph 23.0 mph N/A   Mostly Cloudy
4:51 PM 72.0 °F 61.0 °F 68% 29.79 in 10.0 mi South 10.4 mph 21.9 mph N/A   Overcast
5:51 PM 70.0 °F 61.0 °F 73% 29.78 in 10.0 mi South 8.1 mph - N/A   Overcast
6:51 PM 69.1 °F 59.0 °F 70% 29.77 in 10.0 mi SSE 9.2 mph - N/A   Partly Cloudy
7:51 PM 66.9 °F 57.9 °F 73% 29.77 in 10.0 mi SSE 10.4 mph 18.4 mph N/A   Clear
8:51 PM 66.0 °F 60.1 °F 81% 29.77 in 10.0 mi SSE 9.2 mph 16.1 mph N/A   Mostly Cloudy
9:51 PM 66.0 °F 62.1 °F 87% 29.75 in 10.0 mi SSE 8.1 mph 17.3 mph N/A   Mostly Cloudy
10:23 PM 66.2 °F 62.6 °F 88% 29.74 in 10.0 mi SSE 11.5 mph - N/A   Overcast
10:51 PM 66.0 °F 63.0 °F 90% 29.73 in 10.0 mi SSE 11.5 mph - N/A   Overcast
11:51 PM 66.9 °F 63.0 °F 87% 29.71 in 10.0 mi SSE 10.4 mph - N/A   Overcast